Flag for South Africa Weather past 2 weeks in Stellenbosch, South Africa

Now
63 °F

Sunny.


Feels Like: 63 °F
Forecast: 41 / 78 °F
Wind: 16 mph from South

Location: Cape Town International Airport

Current Time: Sep 20, 2014 at 2:49:42 PM

Latest Report: Sep 20, 2014 at 2:00 PM


Visibility: 10 mi

Pressure: 30.27 "Hg

Humidity: 52%

Dew point: 45 °F

Location of StellenboschLocation

Historic Weather in Stellenbosch — Graph

°F

Stellenbosch temperature yesterday

Maximum temperature yesterday: 61 °F (at 1:00 PM)
Minimum temperature yesterday: 46 °F (at 11:00 PM)
Average temperature yesterday: 53 °F

Past Weeks' High & Low Weather Summary

 TemperatureHumidityPressure
High73 °F (Sep 16, 2:00 PM)100% (Sep 7, 8:00 AM)30.42 "Hg (Sep 7, 8:00 AM)
Low41 °F (Sep 20, 2:00 AM)42% (Sep 12, 4:00 PM)29.74 "Hg (Sep 18, 1:00 AM)
Average58 °F75%30.09 "Hg
* Reported Sep 5 1:00 PM — Sep 20 1:00 PM, Stellenbosch, Weather by CustomWeather, © 2014

Note: Actual official high and low records may vary slightly from our data, if they occured in-between our weather recording intervals... More about our weather records

Advertising

Stellenbosch weather history for previous 24 hours

 ConditionsComfort  
Time TempWeatherWind HumidityBarometerVisibility
1:00 PM
Sep 20
63 °FSunny.16 mph45%30.30 "Hg10 mi
12:00 PM63 °FSunny.15 mph49%30.33 "Hg10 mi
11:00 AM61 °FSunny.10 mph48%30.33 "Hg10 mi
10:00 AM59 °FSunny.12 mph51%30.33 "Hg10 mi
9:00 AM57 °FSunny.10 mph63%30.33 "Hg10 mi
8:00 AM52 °FSunny.7 mph72%30.33 "Hg10 mi
7:00 AM45 °FPassing clouds.8 mph81%30.33 "HgN/A
6:00 AM41 °FSunny.5 mph93%30.36 "Hg10 mi
5:00 AM41 °FClear.2 mph93%30.33 "Hg10 mi
4:00 AM43 °FClear.2 mph87%30.36 "Hg10 mi
3:00 AM45 °FClear.2 mph87%30.36 "Hg10 mi
2:00 AM41 °FPassing clouds.3 mph87%30.39 "HgN/A
1:00 AM46 °FClear.3 mph82%30.39 "Hg10 mi
12:00 AM45 °FClear.1 mph81%30.42 "Hg10 mi
11:00 PM
Sep 19
46 °FClear.2 mph82%30.42 "Hg10 mi
10:00 PM50 °FPassing clouds.3 mph67%30.42 "HgN/A
9:00 PM50 °FPassing clouds.5 mph71%30.39 "HgN/A
8:00 PM52 °FPassing clouds.5 mph72%30.39 "HgN/A
7:00 PM52 °FPassing clouds.6 mph72%30.36 "HgN/A
6:00 PM57 °FPassing clouds.9 mph63%30.36 "HgN/A
5:00 PM59 °FPartly sunny.9 mph63%30.36 "HgN/A
4:00 PM59 °FPartly sunny.9 mph59%30.33 "HgN/A
3:00 PM59 °FPartly sunny.15 mph59%30.33 "HgN/A
2:00 PM57 °FPartly sunny.5 mph77%30.36 "HgN/A
Weather by CustomWeather, © 2014

See weather overviewHow to use our weather pages